TimeEST,TemperatureF,Dew PointF,Humidity,Sea Level PressureIn,VisibilityMPH,Wind Direction,Wind SpeedMPH,Gust SpeedMPH,PrecipitationIn,Events,Conditions,WindDirDegrees,DateUTC
12:54 AM,28.9,21.9,75,30.14,10.0,East,4.6,-,N/A,,Clear,80,2013-02-25 05:54:00
1:54 AM,30.0,21.9,72,30.12,10.0,ENE,6.9,-,N/A,,Clear,70,2013-02-25 06:54:00
2:54 AM,28.0,21.9,78,30.12,10.0,ENE,5.8,-,N/A,,Clear,70,2013-02-25 07:54:00
3:54 AM,28.0,21.0,75,30.12,10.0,East,6.9,-,N/A,,Clear,90,2013-02-25 08:54:00
4:54 AM,28.0,21.0,75,30.13,10.0,East,5.8,-,N/A,,Clear,90,2013-02-25 09:54:00
5:54 AM,27.0,21.0,78,30.15,10.0,East,5.8,-,N/A,,Clear,90,2013-02-25 10:54:00
6:54 AM,27.0,21.0,78,30.16,10.0,East,4.6,-,N/A,,Clear,90,2013-02-25 11:54:00
7:54 AM,28.0,21.0,75,30.15,8.0,East,5.8,-,N/A,,Partly Cloudy,80,2013-02-25 12:54:00
8:54 AM,30.9,21.9,69,30.14,10.0,East,9.2,-,N/A,,Partly Cloudy,100,2013-02-25 13:54:00
9:54 AM,34.0,21.9,61,30.15,10.0,ESE,10.4,-,N/A,,Mostly Cloudy,110,2013-02-25 14:54:00
10:54 AM,36.0,23.0,59,30.14,10.0,ESE,13.8,-,N/A,,Scattered Clouds,110,2013-02-25 15:54:00
11:54 AM,39.0,23.0,53,30.12,10.0,ESE,12.7,-,N/A,,Scattered Clouds,110,2013-02-25 16:54:00
12:54 PM,39.9,24.1,53,30.09,10.0,ESE,12.7,-,N/A,,Partly Cloudy,110,2013-02-25 17:54:00
1:54 PM,42.1,24.1,49,30.06,10.0,East,12.7,-,N/A,,Partly Cloudy,100,2013-02-25 18:54:00
2:54 PM,43.0,24.1,47,30.04,10.0,East,13.8,-,N/A,,Partly Cloudy,90,2013-02-25 19:54:00
3:54 PM,44.1,25.0,47,30.02,10.0,East,11.5,-,N/A,,Scattered Clouds,80,2013-02-25 20:54:00
4:54 PM,43.0,25.0,49,30.00,10.0,East,15.0,-,N/A,,Mostly Cloudy,80,2013-02-25 21:54:00
5:54 PM,42.1,25.0,51,29.99,10.0,East,13.8,-,N/A,,Mostly Cloudy,90,2013-02-25 22:54:00
6:54 PM,41.0,26.1,55,29.96,10.0,ENE,11.5,-,N/A,,Overcast,70,2013-02-25 23:54:00
7:54 PM,39.0,25.0,57,29.94,10.0,ENE,17.3,-,N/A,,Mostly Cloudy,70,2013-02-26 00:54:00
8:54 PM,37.9,26.1,62,29.96,10.0,ENE,15.0,-,N/A,,Mostly Cloudy,70,2013-02-26 01:54:00
9:54 PM,37.9,26.1,62,29.95,10.0,East,13.8,-,N/A,,Overcast,90,2013-02-26 02:54:00
10:54 PM,37.0,25.0,62,29.89,10.0,ENE,15.0,-,N/A,,Mostly Cloudy,70,2013-02-26 03:54:00
11:54 PM,37.0,25.0,62,29.86,10.0,ENE,13.8,-,N/A,,Mostly Cloudy,70,2013-02-26 04:54:00